Weather History for Alliance, NE

Change the Weather History Date:

Tuesday, February 26, 2013

  Actual Average Record
Temperature  
Mean Temperature 26 °F 30 °F  
Max Temperature 42 °F 45 °F 71 °F (1950)
Min Temperature 10 °F 16 °F -21 °F (2014)
Degree Days  
Heating Degree Days 39 35  
Month to date heating degree days 973 992  
Since 1 July heating degree days 5042 5337  
Cooling Degree Days 0 0  
Month to date cooling degree days 0 0  
Year to date cooling degree days 0 0  
Moisture  
Dew Point 18 °F    
Average Humidity 63    
Maximum Humidity 85    
Minimum Humidity 40    
Precipitation  
Precipitation T in 0.02 in 0.60 in (1900)
Month to date precipitation T 0.36  
Year to date precipitation 0.22 0.54  
Sea Level Pressure  
Sea Level Pressure 29.95 in    
Wind  
Wind Speed 11 mph (NNW)    
Max Wind Speed 24 mph    
Max Gust Speed 30 mph    
Visibility 10 miles    
Events      
T = Trace of Precipitation, MM = Missing Value Source: NWS Daily Summary

Daily Weather History Graph

Daily Weather History Graph

Search for Another Location

Airport:

Trip Planner

Search our weather history database for the weather conditions in past years. The results will help you decide how hot, cold, wet, or windy it might be!

Date:

Astronomy

Feb. 26, 2013 Rise Set
Actual Time 6:30 AM MST 5:38 PM MST
Civil Twilight 6:02 AM MST 6:06 PM MST
Nautical Twilight 5:30 AM MST 6:38 PM MST
Astronomical Twilight 4:57 AM MST 7:11 PM MST
Moon 6:59 PM MST (2/26) 6:32 AM MST (2/26)
Length of Visible Light 12h 03m
Length of Day
11h 07m
Full, 99% of the Moon is Illuminated
Feb 26
Full
Mar 4
Last Quarter
Mar 11
New
Mar 19
First Quarter
Mar 27
Full

Hourly Weather History & Observations

Time (MST) Temp. Windchill Dew Point Humidity Pressure Visibility Wind Dir Wind Speed Gust Speed Precip Events Conditions
12:53 AM 15.1 °F 7.7 °F 10.9 °F 84% 29.90 in 10.0 mi SSE 4.6 mph - N/A   Clear
1:53 AM 15.1 °F - 10.0 °F 80% 29.88 in 10.0 mi Calm Calm - N/A   Clear
2:53 AM 15.1 °F - 10.9 °F 84% 29.86 in 10.0 mi Calm Calm - N/A   Clear
3:53 AM 12.9 °F - 8.1 °F 81% 29.87 in 10.0 mi Calm Calm - N/A   Clear
4:53 AM 10.9 °F -2.6 °F 7.0 °F 84% 29.88 in 10.0 mi West 10.4 mph - N/A   Clear
5:53 AM 10.0 °F 0.4 °F 6.1 °F 84% 29.91 in 10.0 mi West 5.8 mph - N/A   Clear
6:53 AM 12.0 °F - 8.1 °F 84% 29.92 in 10.0 mi Calm Calm - N/A   Clear
7:53 AM 19.9 °F - 14.0 °F 78% 29.91 in 10.0 mi Calm Calm - N/A   Clear
8:53 AM 27.0 °F 21.6 °F 19.0 °F 72% 29.90 in 10.0 mi NW 4.6 mph - N/A   Clear
9:53 AM 34.0 °F 24.2 °F 19.9 °F 56% 29.87 in 10.0 mi North 15.0 mph - N/A   Clear
10:53 AM 37.9 °F 27.6 °F 19.9 °F 48% 29.88 in 10.0 mi North 20.7 mph 26.5 mph N/A   Clear
11:53 AM 39.9 °F 30.2 °F 19.9 °F 45% 29.88 in 10.0 mi NNE 20.7 mph - N/A   Clear
12:53 PM 41.0 °F 32.8 °F 19.9 °F 43% 29.88 in 10.0 mi North 16.1 mph 20.7 mph N/A   Mostly Cloudy
1:53 PM 39.0 °F 30.3 °F 21.0 °F 49% 29.90 in 10.0 mi North 16.1 mph 27.6 mph N/A   Overcast
2:53 PM 39.0 °F 31.0 °F 21.9 °F 50% 29.91 in 10.0 mi North 13.8 mph - N/A   Mostly Cloudy
3:53 PM 39.9 °F 29.5 °F 18.0 °F 41% 29.92 in 10.0 mi North 24.2 mph 29.9 mph N/A   Scattered Clouds
4:53 PM 36.0 °F 26.7 °F 19.0 °F 50% 29.97 in 10.0 mi North 15.0 mph 24.2 mph N/A   Clear
5:53 PM 32.0 °F 23.6 °F 21.0 °F 64% 30.03 in 10.0 mi NNE 10.4 mph - N/A   Clear
6:53 PM 28.0 °F 19.3 °F 19.9 °F 72% 30.08 in 10.0 mi North 9.2 mph - N/A   Clear
7:53 PM 30.9 °F 19.8 °F 25.0 °F 79% 30.08 in 10.0 mi North 16.1 mph - N/A   Clear
8:53 PM 30.9 °F 20.2 °F 25.0 °F 79% 30.09 in 10.0 mi North 15.0 mph - N/A   Mostly Cloudy
9:53 PM 30.9 °F 19.4 °F 25.0 °F 79% 30.08 in 10.0 mi NNW 17.3 mph - N/A   Mostly Cloudy
10:28 PM 30.2 °F 17.8 °F 26.6 °F 86% 30.03 in 10.0 mi NNW 19.6 mph - N/A   Overcast
10:53 PM 30.9 °F 18.7 °F 27.0 °F 85% 30.08 in 10.0 mi NNW 19.6 mph - N/A   Overcast
11:53 PM 30.0 °F 18.7 °F 26.1 °F 85% 30.10 in 9.0 mi NNW 16.1 mph 23.0 mph 0.00 in   Overcast